Starlink 5142

operational
NORAD ID: 53984 Int'l Des: 2022-125 Owner: SPXS Country: US Constellation: starlink
LEOCIRCULAR

About Starlink 5142

Description loading...

Live Position

Loading 3D Globe...

Upcoming Passes

Altitude History

Altitude vs Time

uPlot chart will show altitude changes over time

Two-Line Element Set

1 53984U 22125W 25257.44667442 -.00001216 00000-0 -58358-4 0 9994
2 53984 53.2151 285.4631 0001117 83.6472 276.4647 15.08828444162859
Epoch: Sep 14, 2025 • Age: 25 hours

Current Status

Altitude 555.6 km
Velocity 7.58 km/s
Sub-Earth Point -44.83°S, 60.12°E
Launch Date Oct 5, 2022
Age 2.9 years
Type internet

Technical Details

Classification Payload
Mass 305.00 kg
Dry Mass 290.00 kg
Total Mass 305.00 kg
Length 0.20 m
Diameter 2.80 m
Span 9.00 m
Shape Box + pan
Manufacturer SPXS
Bus Type Starlink
Phase Status In Orbit
Owner/State SPXS/US

Large Constellations

Loading constellations...